Flag for Australia Weather past 2 weeks in Brisbane, Queensland, Australia

Now
72 °F

Rain showers. Partly cloudy.


Feels Like: 71 °F
Forecast: 66 / 74 °F
Wind: 6 mph from South

Location: Brisbane Airport M. O

Current Time: Mar 31, 2015 at 8:24:40 PM

Latest Report: Mar 31, 2015 at 8:00 PM


Visibility: 4 mi

Pressure: 30.18 "Hg

Humidity: 83%

Dew point: 66 °F

Location of BrisbaneLocation

Historic Weather in Brisbane — Graph

°F

Brisbane temperature yesterday

Maximum temperature yesterday: 81 °F (at 11:00 AM)
Minimum temperature yesterday: 70 °F (at 6:30 AM)
Average temperature yesterday: 76 °F

Past Weeks' High & Low Weather Summary

 TemperatureHumidityPressure
High86 °F (Mar 19, 12:00 PM)100% (Mar 21, 4:00 PM)30.24 "Hg (Mar 21, 4:00 PM)
Low66 °F (Mar 17, 6:00 AM)45% (Mar 17, 9:30 AM)29.80 "Hg (Mar 19, 2:00 PM)
Average76 °F76%30.02 "Hg
* Reported Mar 16 7:00 PM — Mar 31 7:00 PM, Brisbane, Weather by CustomWeather, © 2015

Note: Actual official high and low records may vary slightly from our data, if they occured in-between our weather recording intervals... More about our weather records

Advertising

Brisbane weather history for previous 24 hours

 ConditionsComfort  
Time TempWeatherWind HumidityBarometerVisibility
7:00 PM
Tue, Mar 31
70 °FSprinkles. Partly cloudy.5 mph88%30.15 "HgN/A
6:00 PM70 °FSprinkles. Partly cloudy.5 mph88%30.12 "HgN/A
5:30 PM70 °FSprinkles. Partly cloudy.7 mph88%30.12 "Hg6 mi
5:00 PM72 °FSprinkles. Partly cloudy.9 mph83%30.12 "HgN/A
4:30 PM73 °FBroken clouds.5 mph74%30.12 "HgN/A
4:00 PM73 °FBroken clouds.10 mph74%30.12 "HgN/A
3:30 PM75 °FBroken clouds.8 mph61%30.12 "HgN/A
3:00 PM75 °FBroken clouds.7 mph61%30.12 "HgN/A
2:30 PM77 °FSprinkles. Broken clouds.7 mph61%30.12 "HgN/A
2:00 PM75 °FScattered showers. Broken clouds.8 mph65%30.12 "HgN/A
1:30 PM75 °FScattered showers. Broken clouds.8 mph61%30.15 "HgN/A
1:00 PM75 °FScattered showers. Broken clouds.8 mph65%30.15 "HgN/A
12:30 PM75 °FSprinkles. Broken clouds.8 mph74%30.15 "HgN/A
12:00 PM73 °FSprinkles. Broken clouds.6 mph78%30.18 "HgN/A
11:00 AM73 °FSprinkles. Broken clouds.5 mph78%30.18 "HgN/A
10:30 AM73 °FSprinkles. Broken clouds.6 mph78%30.18 "HgN/A
10:00 AM73 °FSprinkles. Broken clouds.5 mph78%30.21 "HgN/A
9:30 AM75 °FScattered showers. Broken clouds.6 mph69%30.21 "HgN/A
9:00 AM75 °FScattered showers. Broken clouds.6 mph74%30.21 "HgN/A
8:30 AM75 °FBroken clouds.6 mph74%30.18 "HgN/A
8:00 AM73 °FBroken clouds.5 mph74%30.18 "HgN/A
7:30 AM72 °FBroken clouds.6 mph78%30.18 "HgN/A
7:00 AM72 °FBroken clouds.6 mph78%30.18 "HgN/A
6:00 AM70 °FBroken clouds.5 mph83%30.15 "HgN/A
5:30 AM68 °FBroken clouds.6 mph83%30.15 "HgN/A
5:00 AM68 °FBroken clouds.6 mph83%30.15 "HgN/A
4:30 AM70 °FPartly cloudy.5 mph78%30.12 "HgN/A
4:00 AM70 °FPartly cloudy.5 mph78%30.12 "HgN/A
3:30 AM70 °FPartly cloudy.5 mph78%30.12 "HgN/A
3:00 AM70 °FPartly cloudy.6 mph78%30.15 "HgN/A
2:30 AM70 °FPartly cloudy.6 mph83%30.15 "HgN/A
2:00 AM70 °FPartly cloudy.3 mph83%30.15 "HgN/A
1:00 AM72 °FScattered showers. Partly cloudy.6 mph78%30.18 "HgN/A
12:30 AM73 °FPartly cloudy.6 mph74%30.18 "HgN/A
12:00 AM75 °FScattered showers. Partly cloudy.6 mph65%30.18 "HgN/A
11:30 PM
Mon, Mar 30
75 °FPassing clouds.7 mph65%30.18 "HgN/A
11:00 PM73 °FScattered showers. Passing clouds.6 mph69%30.18 "HgN/A
10:30 PM73 °FPassing clouds.6 mph69%30.18 "HgN/A
10:00 PM73 °FPassing clouds.6 mph69%30.21 "HgN/A
9:30 PM75 °FPassing clouds.6 mph65%30.21 "HgN/A
9:00 PM75 °FPartly cloudy.6 mph65%30.21 "HgN/A
8:30 PM75 °FPartly cloudy.7 mph61%30.21 "HgN/A
8:00 PM75 °FPassing clouds.6 mph61%30.21 "HgN/A
Weather by CustomWeather, © 2015

See weather overviewHow to use our weather pages